Regional Weather Roundup
Issued by NWS Newport/Morehead, NC

Current Version | Previous Version | Graphics & Text | Print | Product List | Glossary Off
Versions: 1 2 3 4 5 6 7 8 9 10 11 12 13 14 15 16 17 18 19 20 21 22 23 24 25 26 27 28 29 30 31 32 33 34 35 36 37 38 39 40 41 42 43 44 45 46 47 48 49 50

000
ASUS42 KMHX 221925
RWRMHX
WEATHER ROUNDUP FOR EASTERN NORTH CAROLINA
NATIONAL WEATHER SERVICE NEWPORT/MOREHEAD CITY NC
300 PM EDT MON MAY 22 2017

NOTE: "FAIR" INDICATES FEW OR NO CLOUDS BELOW 12,000 FEET
WITH NO SIGNIFICANT WEATHER AND/OR OBSTRUCTIONS TO VISIBILITY

NCZ015>017-031-032-045>047-102-103-222000-
NORTH COAST

CITY           SKY/WX    TMP DP  RH WIND       PRES   REMARKS
EDENTON        MOSUNNY   86  70  58 S20G26    29.92F
ELIZABETH CITY MOSUNNY   84  70  62 S14G26    29.92F
KITTY HAWK     NOT AVBL
MANTEO         CLOUDY    77  70  77 S18G24    29.98F

$$

NCZ045>047-081-094-103-104-222000-
CENTRAL COAST

CITY           SKY/WX    TMP DP  RH WIND       PRES   REMARKS
FRISCO         SUNNY     82  69  64 S12       30.01F

$$

NCZ095-097-098-100-101-222000-
SOUTHERN COAST

CITY           SKY/WX    TMP DP  RH WIND       PRES   REMARKS
BEAUFORT       SUNNY     81  72  74 SW20      30.00F
CEDAR ISLAND   NOT AVBL
JACKSONVILLE   NOT AVBL
PINEY ISLAND   PTCLDY   N/A N/A N/A SW17G26   29.99F
WILMINGTON     CLOUDY    84  72  67 S9        29.98F


$$

NCZ011>013-027>030-043-044-078>080-089-090>093-098-222000-
COASTAL PLAIN

CITY           SKY/WX    TMP DP  RH WIND       PRES   REMARKS
AHOSKIE          N/A     72  68  86 NW3       29.96R
CLINTON        CLOUDY    86  67  51 W8        29.96F
ELIZABETHTOWN  NOT AVBL
GOLDSBORO      SUNNY     85  67  53 W13       29.95F
GREENVILLE     SUNNY     84  68  58 NW8G16    29.97F
HAVELOCK       PTSUNNY   85  70  60 S16G24    29.98F
KENANSVILLE    MOSUNNY   86  68  54 SW7       29.95F
KINSTON        MOSUNNY   86  64  48 W8G16     29.96F
NEW BERN       MOSUNNY   86  71  60 W9        29.97F
RICHLANDS      CLOUDY    87  69  54 SW8G16    29.97F
ROCKY MOUNT    MOSUNNY   79  68  69 W13       29.96F
WASHINGTON     MOSUNNY   84  69  60 SW13      29.94F
WHITEVILLE     MOSUNNY   86  66  51 S5        29.96F

$$

AMZ130-135-150-152-154-156-158-170-250-252-270-ANZ085-086-088-633-658-670-222000-
MARINE OBSERVATIONS

STATION/POSITION TIME  TEMP    WIND        PRES    WAVE   SWELL
                       AIR SEA DIR/SP/G            HT/PER HT/PER
                 (UTC) (F)     (DEG/KT/KT) (MB)    (FT/S) (FT/S)
CHESAPEAKE LIGHT NOT AVBL
64 E VA BEACH    1850   70 68  170/ 12/ 14 1015.8    4/ 6   3/ 6
DUCK             1900   72 67  140/ 20/ 21 1013.5
2 E DUCK         1900      67                N/A     4/ 7
OREGON INLET     1900   77 72  170/ 15/ 19 1015.3
13E OREGON INLT  1848      67                N/A     3/ 7   2/ 7
HATTERAS CG      1900   77 74  170/ 12/ 14 1015.8
DIAMOND BUOY     1850   77 78  190/ 12/ 16 1016.3    4/ 8   3/ 8
CAPE LOOKOUT     1900   78     210/ 13/ 18 1015.6
BEAUFORT LAB     1900   78 75  210/ 13/ 17 1015.0
30 SE NEW RVR IN 1908   77 76  220/ 14/ 17 1016.1
30 SE NEW RVR IN 1913      76                N/A     4/ 5
27 SE WRIGHTSVLE 1908   76 76  200/ 12/ 19 1015.8
5 SE WRIGHTSVLE  1908   77 75  200/ 12/ 19 1015.6
225 S CAPE HAT   1850   76 78  220/  4/  6 1018.9    4/ 8   3/ 8
41 SE CHARLESTON 1910   78 78  180/ 10/ 12 1015.8

$$



USA.gov is the U.S. government's official web portal to all federal, state and local government web resources and services.